TimeAEST,TemperatureF,Dew PointF,Humidity,Sea Level PressureIn,VisibilityMPH,Wind Direction,Wind SpeedMPH,Gust SpeedMPH,PrecipitationIn,Events,Conditions,WindDirDegrees,DateUTC
12:00 AM,71,57,53,30.07,,South,15.0,,,,,170,2013-07-23 14:00:00
12:00 AM,71.6,57.2,60,30.06,6.2,South,15.0,-,N/A,,Mostly Cloudy,170,2013-07-23 14:00:00
12:30 AM,71.6,57.2,60,30.06,6.2,South,13.8,-,N/A,,Partly Cloudy,170,2013-07-23 14:30:00
1:00 AM,71,55,47,30.06,,South,15.0,,,,,170,2013-07-23 15:00:00
1:00 AM,71.6,55.4,57,30.04,6.2,South,15.0,-,N/A,,Scattered Clouds,170,2013-07-23 15:00:00
1:30 AM,71.6,53.6,53,30.04,6.2,South,17.3,-,N/A,,Mostly Cloudy,170,2013-07-23 15:30:00
2:00 AM,69.8,51.8,53,30.04,6.2,SSE,16.1,-,N/A,,Mostly Cloudy,160,2013-07-23 16:00:00
2:30 AM,69.8,50.0,49,30.04,6.2,SSE,18.4,-,N/A,,Mostly Cloudy,160,2013-07-23 16:30:00
3:00 AM,70,50,37,30.04,,SSE,13.8,,,,,150,2013-07-23 17:00:00
3:00 AM,69.8,50.0,49,30.04,6.2,SSE,13.8,-,N/A,,Mostly Cloudy,150,2013-07-23 17:00:00
3:30 AM,69.8,48.2,46,30.04,6.2,SSE,18.4,-,N/A,,Mostly Cloudy,160,2013-07-23 17:30:00
4:00 AM,69,48,36,30.04,,SSE,18.4,,,,,160,2013-07-23 18:00:00
4:00 AM,69.8,48.2,46,30.04,6.2,SSE,18.4,-,N/A,,Partly Cloudy,160,2013-07-23 18:00:00
4:30 AM,69.8,46.4,43,30.04,-9999.0,SSE,16.1,-,N/A,,Clear,160,2013-07-23 18:30:00
5:00 AM,68.0,48.2,49,30.04,-9999.0,South,13.8,-,N/A,,Clear,170,2013-07-23 19:00:00
5:30 AM,68.0,48.2,49,30.04,-9999.0,SSE,17.3,-,N/A,,Clear,160,2013-07-23 19:30:00
6:00 AM,68,48,38,30.06,19,SSE,17.3,,,,Partly Cloudy,160,2013-07-23 20:00:00
6:00 AM,68.0,48.2,49,30.04,6.2,SSE,17.3,-,N/A,,Mostly Cloudy,160,2013-07-23 20:00:00
6:30 AM,68.0,46.4,46,30.06,6.2,SSE,18.4,-,N/A,,Mostly Cloudy,160,2013-07-23 20:30:00
7:00 AM,68,46,33,30.09,,SSE,18.4,,,,,160,2013-07-23 21:00:00
7:00 AM,68.0,46.4,46,30.06,6.2,SSE,18.4,-,N/A,,Mostly Cloudy,160,2013-07-23 21:00:00
7:30 AM,68.0,44.6,43,30.06,6.2,SSE,19.6,-,N/A,,Mostly Cloudy,160,2013-07-23 21:30:00
8:00 AM,68.0,44.6,43,30.09,6.2,South,18.4,-,N/A,,Scattered Clouds,170,2013-07-23 22:00:00
8:30 AM,68.0,46.4,46,30.09,6.2,SSE,17.3,-,N/A,,Scattered Clouds,160,2013-07-23 22:30:00
9:00 AM,71,45,28,30.10,19,SSE,20.7,,,,Partly Cloudy,160,2013-07-23 23:00:00
9:00 AM,71.6,44.6,38,30.09,6.2,SSE,20.7,-,N/A,,Partly Cloudy,160,2013-07-23 23:00:00
9:30 AM,71.6,44.6,38,30.09,6.2,SSE,24.2,-,N/A,,Partly Cloudy,160,2013-07-23 23:30:00
9:39 AM,71.6,44.6,38,30.09,6.2,SSE,20.7,32.2,N/A,,Partly Cloudy,160,2013-07-23 23:39:00
10:00 AM,72,42,23,30.11,,SSE,23.0,,,,,160,2013-07-24 00:00:00
10:00 AM,71.6,41.0,33,30.09,6.2,SSE,23.0,-,N/A,,Scattered Clouds,160,2013-07-24 00:00:00
10:12 AM,71.6,42.8,35,30.09,6.2,SSE,23.0,34.5,N/A,,Scattered Clouds,160,2013-07-24 00:12:00
10:30 AM,73.4,41.0,31,30.09,6.2,SSE,23.0,-,N/A,,Scattered Clouds,160,2013-07-24 00:30:00
11:00 AM,73.4,42.8,33,30.09,6.2,SSE,23.0,-,N/A,,Mostly Cloudy,150,2013-07-24 01:00:00
11:30 AM,73.4,42.8,33,30.09,6.2,SSE,18.4,-,N/A,,Mostly Cloudy,150,2013-07-24 01:30:00
12:00 PM,73,41,21,30.08,19,SSE,20.7,,,,Partly Cloudy,160,2013-07-24 02:00:00
12:00 PM,73.4,41.0,31,30.06,6.2,SSE,20.7,-,N/A,,Mostly Cloudy,160,2013-07-24 02:00:00
12:30 PM,71.6,41.0,33,30.06,6.2,SSE,20.7,-,N/A,,Mostly Cloudy,150,2013-07-24 02:30:00
1:00 PM,72,41,22,30.06,,SE,18.4,,,,,140,2013-07-24 03:00:00
1:00 PM,71.6,41.0,33,30.04,6.2,SE,18.4,-,N/A,,Mostly Cloudy,140,2013-07-24 03:00:00
1:30 PM,71.6,44.6,38,30.04,6.2,SE,19.6,-,N/A,,Mostly Cloudy,140,2013-07-24 03:30:00
2:00 PM,71.6,42.8,35,30.04,6.2,SE,18.4,-,N/A,,Mostly Cloudy,130,2013-07-24 04:00:00
2:30 PM,71.6,44.6,38,30.04,6.2,SE,19.6,-,N/A,,Mostly Cloudy,130,2013-07-24 04:30:00
3:00 PM,73,46,27,30.02,19,SE,20.7,,,,Partly Cloudy,130,2013-07-24 05:00:00
3:00 PM,73.4,46.4,38,30.01,6.2,SE,20.7,-,N/A,,Scattered Clouds,130,2013-07-24 05:00:00
3:30 PM,73.4,46.4,38,30.01,6.2,SE,19.6,-,N/A,,Scattered Clouds,130,2013-07-24 05:30:00
4:00 PM,72,46,28,30.03,,SE,19.6,,,,,130,2013-07-24 06:00:00
4:00 PM,71.6,46.4,41,30.01,6.2,SE,19.6,-,N/A,,Scattered Clouds,130,2013-07-24 06:00:00
4:30 PM,69.8,44.6,40,30.04,6.2,SE,17.3,-,N/A,,Scattered Clouds,130,2013-07-24 06:30:00
5:00 PM,68.0,44.6,43,30.04,6.2,SE,15.0,-,N/A,,Scattered Clouds,140,2013-07-24 07:00:00
5:30 PM,68.0,42.8,40,30.04,6.2,SE,13.8,-,N/A,,Scattered Clouds,140,2013-07-24 07:30:00
6:00 PM,67,41,27,30.06,,SE,15.0,,,,,140,2013-07-24 08:00:00
6:00 PM,66.2,41.0,40,30.06,6.2,SE,15.0,-,N/A,,Scattered Clouds,140,2013-07-24 08:00:00
6:30 PM,66.2,39.2,37,30.06,6.2,SSE,11.5,-,N/A,,Scattered Clouds,160,2013-07-24 08:30:00
7:00 PM,66,37,23,30.09,,SSE,10.4,,,,,150,2013-07-24 09:00:00
7:00 PM,66.2,37.4,35,30.06,6.2,SSE,10.4,-,N/A,,Mostly Cloudy,150,2013-07-24 09:00:00
7:30 PM,66.2,39.2,37,30.09,6.2,SSE,15.0,-,N/A,,Mostly Cloudy,150,2013-07-24 09:30:00
8:00 PM,66.2,39.2,37,30.09,-9999.0,South,17.3,-,N/A,,Clear,170,2013-07-24 10:00:00
8:30 PM,66.2,39.2,37,30.09,-9999.0,South,8.1,-,N/A,,Clear,170,2013-07-24 10:30:00
9:00 PM,66,40,27,30.12,,SSE,10.4,,,,,160,2013-07-24 11:00:00
9:00 PM,66.2,39.2,37,30.09,-9999.0,SSE,10.4,-,N/A,,Clear,160,2013-07-24 11:00:00
9:30 PM,66.2,41.0,40,30.12,-9999.0,SSE,10.4,-,N/A,,Clear,160,2013-07-24 11:30:00
10:00 PM,66,40,26,30.12,,South,10.4,,,,,170,2013-07-24 12:00:00
10:00 PM,66.2,39.2,37,30.09,-9999.0,South,10.4,-,N/A,,Clear,170,2013-07-24 12:00:00
10:30 PM,66.2,39.2,37,30.12,-9999.0,South,9.2,-,N/A,,Clear,170,2013-07-24 12:30:00
11:00 PM,66.2,37.4,35,30.12,-9999.0,South,10.4,-,N/A,,Clear,170,2013-07-24 13:00:00
11:30 PM,66.2,39.2,37,30.12,-9999.0,South,8.1,-,N/A,,Clear,170,2013-07-24 13:30:00